EDT,Max TemperatureF,Mean TemperatureF,Min TemperatureF,Max Dew PointF,MeanDew PointF,Min DewpointF,Max Humidity, Mean Humidity, Min Humidity, Max Sea Level PressureIn, Mean Sea Level PressureIn, Min Sea Level PressureIn, Max VisibilityMiles, Mean VisibilityMiles, Min VisibilityMiles, Max Wind SpeedMPH, Mean Wind SpeedMPH, Max Gust SpeedMPH,PrecipitationIn, CloudCover, Events, WindDirDegrees
2014-3-1,34,22,10,20,9,-1,64,53,38,30.43,30.31,30.15,10,10,10,10,4,,0.00,3,,219
2014-3-2,37,34,28,22,18,13,57,53,46,30.13,30.05,29.99,10,10,8,14,5,,0.00,8,,309
2014-3-3,26,19,10,12,1,-5,74,48,37,30.34,30.18,30.01,10,9,2,18,12,25,0.00,5,Snow,348
2014-3-4,27,18,8,12,1,-6,64,48,31,30.43,30.33,30.26,10,10,10,12,7,,0.00,2,,318
2014-3-5,34,28,19,13,9,5,65,47,32,30.46,30.29,30.22,10,10,10,17,4,24,0.00,5,,354
2014-3-6,26,18,10,9,2,-5,65,48,27,30.64,30.56,30.48,10,10,10,13,8,17,0.00,0,,19
2014-3-7,35,27,19,27,19,9,75,66,57,30.48,30.22,29.93,10,10,9,8,4,,0.00,7,,41
2014-3-8,51,40,30,29,27,25,93,60,36,29.90,29.84,29.77,10,10,7,16,9,20,0.00,4,,311
2014-3-9,39,36,32,26,16,9,67,46,33,30.01,29.95,29.88,10,10,7,20,10,28,0.00,3,,311
2014-3-10,48,40,34,29,23,9,70,55,35,29.91,29.78,29.62,10,8,2,9,4,21,0.00,6,Snow,229
2014-3-11,61,48,36,34,30,26,76,50,28,29.71,29.62,29.55,10,10,7,14,5,17,0.00,1,,283
2014-3-12,51,43,30,47,38,26,100,78,48,29.68,29.28,29.02,10,6,0,21,6,36,0.16,6,Fog-Rain,128
2014-3-13,27,22,15,25,5,-4,81,50,27,30.06,29.60,29.15,10,10,8,32,23,43,0.00,4,Snow,311
2014-3-14,41,28,17,28,11,-2,76,47,32,30.22,30.10,29.93,10,10,10,20,10,28,0.00,3,,209
2014-3-15,55,45,35,32,25,19,82,49,27,29.98,29.83,29.76,10,10,9,23,7,34,0.00,5,Rain,287
2014-3-16,37,32,27,20,7,0,50,36,26,30.19,30.13,30.00,10,10,10,23,15,29,0.00,2,,314
2014-3-17,33,26,19,9,3,-5,55,38,24,30.15,30.10,30.05,10,10,10,14,9,21,0.00,6,,10
2014-3-18,39,30,21,23,5,-2,75,38,18,30.31,30.25,30.14,10,10,10,10,5,16,0.00,0,,87
2014-3-19,41,34,27,37,29,22,100,82,57,30.32,30.14,29.86,10,7,2,14,6,20,0.63,6,Rain,92
2014-3-20,53,44,37,39,31,20,100,69,35,29.88,29.76,29.71,10,6,0,20,8,33,0.15,5,Fog-Rain,284
2014-3-21,46,40,33,20,18,17,56,42,30,30.06,29.96,29.88,10,10,10,23,13,31,0.00,2,,294
2014-3-22,61,45,30,36,26,17,79,51,25,30.05,29.89,29.74,10,10,10,22,7,30,0.00,1,,324
2014-3-23,39,33,25,22,15,4,59,44,30,30.11,30.02,29.97,10,10,10,20,10,26,0.00,4,,308
2014-3-24,33,25,18,5,3,2,52,40,28,30.24,30.17,30.10,10,10,10,21,12,28,0.00,1,,313
2014-3-25,37,27,18,16,10,4,65,47,30,30.17,30.05,29.86,10,10,10,14,3,20,0.00,3,,121
2014-3-26,36,28,21,16,6,-2,54,38,26,30.19,29.89,29.73,10,10,10,30,17,45,0.00,3,,320
2014-3-27,42,29,19,24,9,0,64,44,20,30.41,30.32,30.23,10,10,10,16,10,24,0.00,1,,243
2014-3-28,54,42,33,47,37,17,93,78,48,30.25,30.08,29.98,10,8,2,9,3,18,0.06,6,Rain,178
2014-3-29,50,46,43,45,42,38,93,85,71,30.19,30.05,29.72,10,6,2,16,8,26,1.54,6,Rain,64
2014-3-30,46,42,37,46,42,33,97,91,83,29.68,29.56,29.49,10,4,2,20,13,28,1.04,8,Rain,10
2014-3-31,52,42,33,34,30,24,89,70,48,30.06,29.87,29.69,10,8,2,29,20,45,0.12,5,Rain-Snow,343